Simultaneous Nadir Overpasses (SNOs) Predictions

Prediction of SNOs between GOES-16 and TERRA Satellite Orbit:

Table of predicted SNOs for the next 14.0 days since TLE Epoch: 3/28/2025
Index Date Time (GOES-16) GOES-16 Lat,Lon TERRA Lat,Lon Distance(km) Time Diff (sec)
1 03/30/2025 02:24:03 -0.06, -75.49 0.15, -74.38 126.16 80
2 03/30/2025 14:43:35 0.06, -75.52 0.83, -79.14 410.81 80
3 04/01/2025 14:27:20 0.06, -75.53 -0.13, -74.58 108.35 80
4 04/02/2025 02:47:00 -0.06, -75.51 -0.88, -79.36 437.60 80
5 04/04/2025 02:25:25 -0.05, -75.53 0.11, -74.81 81.97 80
6 04/04/2025 14:44:56 0.05, -75.55 0.88, -79.56 454.78 80
7 04/06/2025 14:28:39 0.05, -75.58 -0.05, -74.99 66.35 80
8 04/07/2025 02:48:18 -0.05, -75.56 -0.95, -79.78 478.85 80
9 04/09/2025 02:26:41 -0.04, -75.60 0.03, -75.21 43.73 80
10 04/09/2025 14:46:12 0.04, -75.63 0.93, -79.97 492.39 80
11 04/11/2025 14:29:54 0.04, -75.67 -0.04, -75.40 31.99 80
